Location: Asni�res
(49.1337°N, 2.3555°E)
Time: 12:49:46
(UTC+00:00)

CZ-4 R/B - Pass Details

Date: 16 October 2021
Orbit: 530 x 595 km, 97.8° (Epoch: 07 December)

Event Time Altitude Azimuth Distance (km) Brightness Sun altitude
Rises 19:39:50 0° 207° (SSW) 2,708 5.0 -26.9°
Reaches altitude 10° 19:42:32 10° 227° (SW) 1,833 4.3 -27.4°
Maximum altitude 19:45:12 17° 269° (W) 1,447 4.2 -27.8°
Drops below altitude 10° 19:47:54 10° 312° (NW) 1,871 4.8 -28.2°
Sets 19:50:43 0° 332° (NNW) 2,789 5.6 -28.6°
